Regional Weather Roundup
Issued by NWS Pendleton, OR

Home | Current Version | Previous Version | Text Only | Print | Product List | Glossary On
Versions: 1 2 3 4 5 6 7 8 9 10 11 12 13 14 15 16 17 18 19 20 21 22 23 24 25 26 27 28 29 30 31 32 33 34 35 36 37 38 39 40 41 42 43 44 45 46 47 48 49 50
053
ASUS46 KPDT 250825
RWRPDT
PENDLETON REGIONAL WEATHER ROUNDUP
NATIONAL WEATHER SERVICE PENDLETON OREGON
100 AM PDT MON JUL 25 2016

NOTE: FAIR INDICATES FEW OR NO CLOUDS BELOW 12,000 FEET WITH NO
SIGNIFICANT WEATHER AND/OR OBSTRUCTIONS TO VISIBILITY.

# INDICATES UNOFFICIAL STATION AND DATA

WAZ520-250910-
EAST SLOPES OF WASHINGTON CASCADES

CITY            SKY/WX      TMP DP  RH  WIND    PRES   REMARKS
#CLE ELUM HS    N/A         59  51  75  CALM    29.98S
#CLE ELUM 2NW   N/A         58  50  75  CALM    N/A
#GLENWOOD       N/A         55  51  86  CALM    29.93R
#MANASTASH CYN  N/A         60  49  67  CALM    30.01F
#NELSON 3SW     N/A         58  46  64  CALM    30.12F
#NILE           N/A         60  54  81  CALM    29.25S
#RONALD 2NW     N/A         61  N/A N/A N1      30.11S
#TEANAWAY 4NE   N/A         59  52  78  CALM    N/A
#TROUT LAKE 1NE N/A         60  54  81  W1      29.92S
#TROUT LAKE 1E  N/A         60  55  84  CALM    29.97R
$$

WAZ521-250910-
SIMCOE HIGHLANDS

CITY            SKY/WX      TMP DP  RH  WIND    PRES   REMARKS
#CENTERVILLE 1SWN/A         59  40  49  CALM    29.87S
#GOLDENDALE 1NE N/A         67  29  24  NW3     N/A
#GOLDENDALE 4W  N/A         62  54  75  N2      30.01S
#GOODNOE HILLS  N/A         78  46  32  N3      29.86F
#LYLE 6NE       N/A         69  58  68  S3      29.88S
$$

WAZ026-250910-
KITTITAS VALLEY

CITY            SKY/WX      TMP DP  RH  WIND    PRES   REMARKS
ELLENSBURG AP   CLEAR       68  53  59  NW8     29.99S
#ELLENSBURG CWU N/A         66  53  63  W5      29.87R
#ELLENSBURG 3NE N/A         59  51  75  CALM    29.99S
#ELLENSBURG     N/A         70  56  61  W2      N/A
#ELLENSBURG 1E  N/A         61  N/A N/A CALM    N/A
#KITTITAS 4N    N/A         62  49  62  E3      30.02S
#KITTITAS 3S    N/A         62  54  75  CALM    29.90S
#THORP 6N       N/A         63  53  70  N8      29.93F
$$

WAZ027-250910-
YAKIMA VALLEY

CITY            SKY/WX      TMP DP  RH  WIND    PRES   REMARKS
SUNNYSIDE AP    CLEAR       61  53  75  CALM    29.93S
YAKIMA AIRPORT  CLEAR       66  50  56  W7      29.96S
YAKIMA-VAGABOND N/A         67  47  49  NE5     29.95S
#GRANDVIEW      N/A         64  52  65  CALM    29.91S
#MABTON         N/A         64  53  67  CALM    29.92S
#NACHES 2SW     N/A         71  55  57  W6      29.98S
#TERRACE HTS    N/A         66  53  63  CALM    29.86F
#WEST VALLEY    N/A         69  52  55  CALM    29.88F
#W YAKIMA       N/A         72  55  55  W5      29.90F
#WHITE SWAN 5E  N/A         62  53  72  CALM    29.90F
#WILEY CITY 3W  N/A         65  46  50  CALM    29.94S
$$

WAZ028-250910-
LOWER COLUMBIA BASIN...WASHINGTON

CITY            SKY/WX      TMP DP  RH  WIND    PRES   REMARKS
HANFORD         CLEAR       73  43  34  W6      29.91S
PASCO           CLEAR       66  56  70  E5      29.91S
PROSSER AWOS    N/A         61  54  78  CALM    29.96S
RICHLAND AWOS   CLEAR       68  56  65  CALM    29.91S
#BENTON CITY    N/A         67  49  52  CALM    29.80R
#CONNELL 5N     N/A         65  46  50  CALM    29.88S
#CONNELL 5NW    N/A         61  47  60  CALM    29.85S
#ELTOPIA 6NW    N/A         71  51  49  CALM    28.90S
#KAHLOTUS       N/A         72  44  37  SE3     29.88S
#KENNEWICK 3S   N/A         73  48  41  CALM    29.89S
#PATERSON       N/A         69  51  53  CALM    29.88R
#SAGEMOOR 2W    N/A         73  52  48  CALM    29.74S
#TOUCHET 2S     N/A         56  50  80  CALM    29.88S
#WEST PASCO     N/A         67  52  59  CALM    29.90R
$$

WAZ029-250910-
FOOTHILLS OF THE BLUES...WASHINGTON

CITY            SKY/WX      TMP DP  RH  WIND    PRES   REMARKS
WALLA WALLA AP  CLEAR       69  49  49  E8      29.94S
#CLYDE 6NW      N/A         64  44  48  CALM    29.88S
#LOWDEN 2SE     N/A         59  53  80  E1      29.88S
#PLEASANT VIEW 1N/A         75  45  34  CALM    29.91S
#PRESCOTT       N/A         63  49  60  CALM    29.88S
#WHITMAN COLLEGEN/A         71  52  51  E2      29.93S
#WAITSBURG 5S   N/A         63  48  58  N3      29.97S
#WAITSBURG 8N   N/A         58  16  19  N2      29.92S
#WALLA WALLA U  N/A         71  53  53  CALM    29.89R
#WHITMAN MISSIONN/A         62  55  78  CALM    29.90S
$$

WAZ030-250910-
BLUE MOUNTAINS...WASHINGTON

CITY            SKY/WX      TMP DP  RH  WIND    PRES   REMARKS
#DIXIE 5SE      N/A         72  46  39  NW6     29.97S
$$

ORZ009-041-WAZ024-250910-
COLUMBIA RIVER GORGE

CITY            SKY/WX      TMP DP  RH  WIND    PRES   REMARKS
HOOD RIVER AP   CLEAR       64  54  70  CALM    29.96R
THE DALLES AP   CLEAR       73  49  43  W3      29.92R
#ARLINGTON AIRPON/A         70  45  41  CALM    29.90R
#LYLE           N/A         74  58  57  CALM    29.93R
#MARYHILL 2W    N/A         75  48  38  S1      N/A
#MOSIER 1S      N/A         69  46  44  CALM    29.94S
#MURDOCK        N/A         75  59  58  W12     29.87R
#RUFUS DOT      N/A         76  48  37  W2      N/A
#SMITHVILLE     N/A         74  58  57  W10     29.86F

$$

ORZ510-250910-
NORTH CENTRAL OREGON

CITY            SKY/WX      TMP DP  RH  WIND    PRES   REMARKS
#ANTELOPE       N/A         64  44  48  CALM    29.75S
#CHENOWITH 1W   N/A         68  55  63  W15     N/A
#COW CYN RST AREN/A         71  N/A N/A NE2     N/A
#DUFUR 9E       N/A         73  54  51  CALM    29.94S
#GRASS VALLEY 1SN/A         65  41  41  CALM    29.96S
#KENT DOT       N/A         70  36  29  N3      N/A
#SHANIKO 5WSW   N/A         70  36  29  N12     N/A
#SHANIKO 4NW    N/A         69  51  53  E9      30.07F
#TYGH VALLEY 2NEN/A         65  44  46  CALM    29.91R
#WAPANITIA AIRPON/A         67  51  56  W5      29.92R
#WASCO DOT      N/A         62  40  44  E2      N/A
#WASCO AIRPORT  N/A         69  39  33  NW3     N/A
#WASCO 5NE      N/A         63  43  48  SW1     29.89S
$$

ORZ511-250910-
CENTRAL OREGON

CITY            SKY/WX      TMP DP  RH  WIND    PRES   REMARKS
BEND AIRPORT    CLEAR       66  39  37  W7      30.07S
MADRAS AIRPORT  CLEAR       66  45  47  NW3     30.04R
PRINEVILLE AP   CLEAR       61  45  56  CALM    30.06R
REDMOND AIRPORT CLEAR       69  38  32  W6      30.05S
#ASHWOOD SCHOOL N/A         65  44  46  CALM    29.99R
#BEND 1SW       N/A         57  41  55  NE2     N/A
#BEND-AWBREY    N/A         67  42  40  CALM    30.03S
#CULVER         N/A         62  44  52  CALM    29.85R
#CULVER 8W      N/A         67  38  34  CALM    30.04R
#LAKE BILLY CHINN/A         69  N/A N/A CALM    30.08R
#MADRAS 4S      N/A         61  16  17  S1      30.09S
#POWELL BUTTE 3EN/A         66  39  37  S2      N/A
#POWELL BUTTE   N/A         66  41  40  W3      30.00R
#PRINEVILLE 3N  N/A         59  48  67  CALM    29.95R
#WARM SPRINGS   N/A         73  47  40  CALM    29.96R

$$


ORZ509-250910-
EAST SLOPES OF OREGON CASCADES

CITY            SKY/WX      TMP DP  RH  WIND    PRES   REMARKS
SISTERS AWOS    N/A         59  39  47  CALM    30.05R
#CAMP SHERMAN   N/A         53  41  64  CALM    29.98S
#LA PINE DOT    N/A         63  35  35  NW3     N/A
#LA PINE 4NW    N/A         55  42  61  CALM    29.96R
#LAVA BUTTE DOT N/A         66  37  34  CALM    N/A
#SISTERS AIRPOR N/A         58  45  62  CALM    30.17S
#SISTERS ODOT   N/A         56  N/A N/A E1      N/A
#SISTERS 3N     N/A         55  33  43  CALM    30.06S
#SUNRIVER       N/A         61  42  50  CALM    29.93R
#SUTTLE LK DOT  N/A         54  47  77  NW5     N/A
#TUMALO 3W      N/A         69  40  35  W6      29.78S
#WANOGA BUTTE D N/A         61  36  39  NE6     N/A

$$

ORZ044-250910-
LOWER COLUMBIA BASIN...OREGON

CITY            SKY/WX      TMP DP  RH  WIND    PRES   REMARKS
HERMISTON       CLEAR       65  45  48  SE6     29.92R
#BOARDMAN 8SW   N/A         68  48  49  CALM    29.89S
#ECHO 8SW       N/A         62  47  58  SW1     29.93S
#I-84 EX 198 DOTN/A         72  48  43  NE9     N/A
#UMATILLA       N/A         64  50  60  CALM    29.83R
$$

ORZ507-250910-
NORTHERN FOOTHILLS OF THE BLUES

CITY            SKY/WX      TMP DP  RH  WIND    PRES   REMARKS
PENDLETON AIRPT CLEAR       64  43  46  SE9     29.96S
#ADAMS 3WNW     N/A         55  44  66  CALM    29.90S
#ATHENA         N/A         57  47  69  CALM    29.93S
#CAYUSE         N/A         69  51  53  E6      29.88F
#HELIX SCHOOL   N/A         58  45  62  CALM    29.91S
#HELIX 3N       N/A         66  46  48  S3      29.96R
#HOLDMAN 5SE    N/A         63  47  56  CALM    29.95S
#HOLDMAN 6E     N/A         68  47  47  NW1     29.71S
#M-F GROVE ELEM N/A         70  48  46  CALM    29.92S
#M-FREEWATER 5SEN/A         69  51  53  E5      29.95S
#PENDLETON DNTN N/A         64  41  43  E2      29.98S
#PDT AQUATIC CTRN/A         65  39  38  CALM    29.80S
#PDT SUNRIDGE   N/A         61  44  53  CALM    29.96S
#PENDLETON 7NW  N/A         63  47  56  CALM    32.37S
#PILOT ROCK 1S  N/A         67  40  37  S6      29.99S
#PILOT ROCK     N/A         64  41  43  SW3     30.00S
#TUTUILLA       N/A         56  46  69  CALM    29.93S
#UMAPINE 2E     N/A         65  55  70  S1      29.89S
#WESTON SCHOOL  N/A         67  44  43  CALM    29.82F

$$

ORZ508-250910-
SOUTHERN FOOTHILLS OF THE BLUES

CITY            SKY/WX      TMP DP  RH  WIND    PRES   REMARKS
LEXINGTON       CLEAR       64  43  46  E9      30.01R
#AJAX           N/A         73  37  27  CALM    27.74F
#CONDON 5W      N/A         69  42  37  NE2     30.03S
#HEPPNER EOC    N/A         65  44  46  SE7     29.85R
#HEPPNER 4NE    N/A         63  42  46  E1      29.91S
#LEXINGTON 2SE  N/A         65  45  48  SE7     29.96R
#RUGGS 5NE      N/A         60  39  46  S2      30.20S
#RUGGS 2SW      N/A         66  42  42  S7      29.92S

$$

ORZ502-503-250910-
BLUE MOUNTAINS

CITY            SKY/WX      TMP DP  RH  WIND    PRES   REMARKS
MEACHAM         CLEAR       49  43  80  CALM    30.10S
#BATTLE MTN DOT N/A         57  38  49  N2      N/A
#CUTSFORTH PARK N/A         50  43  77  CALM    29.89R
#GREENHORN 9SW  N/A         52  39  61  CALM    30.09R
#HARDMAN 10S    N/A         61  34  36  N5      30.22S
#HEPPNER 15SE   N/A         54  41  61  CALM    30.02S
#LADD CYN SMT   N/A         57  44  62  N2      N/A
#LADD CREEK ODOTN/A         63  45  52  CALM    N/A
#N POWDER DOT   N/A         56  50  80  W3      N/A
#PIKES PEAK     N/A         72  43  35  CALM    27.99S
#TOLLGATE       N/A         58  45  62  CALM    30.00S
#TROY SCHOOL    N/A         61  50  67  CALM    29.77R
#UKIAH          N/A         50  43  77  CALM    29.89R
#WESTON 4E      N/A         67  48  50  E2      29.85F
$$

ORZ505-250910-
JOHN DAY BASIN

CITY            SKY/WX      TMP DP  RH  WIND    PRES   REMARKS
JOHN DAY        CLEAR       68  40  36  SW5     30.08R
#DAYVILLE SCHOOLN/A         71  40  32  CALM    29.99R
#MITCHELL 8NW   N/A         71  40  32  CALM    30.08S
#MONUMENT HS    N/A         66  42  42  CALM    29.88S
#MT. VERNON 5SE N/A         66  42  42  CALM    30.04S
#SPRAY SCHOOL   N/A         63  N/A N/A CALM    N/A
$$

ORZ506-250910-
OCHOCO AND JOHN DAY HIGHLANDS

CITY            SKY/WX      TMP DP  RH  WIND    PRES   REMARKS
#BUCK CREEK DOT N/A         69  41  36  W3      N/A
#HORSE RIDGE DO N/A         54  36  50  CALM    N/A
#KEYES SMT DOT  N/A         66  40  38  N5      N/A
#PAULINA SCHOOL N/A         64  39  40  CALM    N/A
#PINE MTN OBS   N/A         59  40  49  NW3     N/A
#PRAIRIE CITY   N/A         54  41  61  CALM    30.22R
#SENECA         N/A         53  N/A N/A CALM    N/A
#SENECA 9NW     N/A         54  35  48  CALM    29.88S
$$

ORZ049-250910-
GRANDE RONDE VALLEY

CITY            SKY/WX      TMP DP  RH  WIND    PRES   REMARKS
LA GRANDE       CLEAR       61  39  44  NW3     30.02S
#COVE           N/A         61  52  72  NW2     30.06S
#COVE SCHOOL    N/A         60  48  64  CALM    30.05R
#COVE 6NW       N/A         56  47  72  CALM    29.91S
#ELGIN 3N       N/A         59  44  57  CALM    30.00S
#ELGIN 1E       N/A         61  48  62  CALM    N/A
#ISLAND CITY 4N N/A         62  57  84  CALM    29.99R
#LADD CYN DOT   N/A         67  46  47  SE13    N/A
#UNION 1S       N/A         66  49  54  CALM    29.82R
$$

ORZ050-250910-
WALLOWA COUNTY

CITY            SKY/WX      TMP DP  RH  WIND    PRES   REMARKS
JOSEPH AIRPORT  CLEAR       55  45  69  S5      N/A
#ENTERPRISE AP  N/A         49  29  46  CALM    30.03S
#ENTERPRISE HS  N/A         54  47  77  CALM    30.09S
#IMNAHA SCHOOL  N/A         69  50  51  SW3     30.00R
#JOSEPH 3N      N/A         50  43  77  CALM    30.11S
#JOSEPH 3W      N/A         N/A N/A N/A CALM    29.97F
#LOSTINE        N/A         59  47  64  CALM    29.74S
#LOSTINE 3SE    N/A         58  46  64  S3      30.06S
#MT HOWARD 8000 N/A         59  37  44  SW1     30.36F
#PROMISE 1S     N/A         59  42  53  CALM    30.01S
#WALLOWA SCHOOL N/A         54  48  80  CALM    30.02R



$$



USA.gov is the U.S. government's official web portal to all federal, state and local government web resources and services.